This is the latest recevied weather packets stored in our database for station/object KE0TNI-13. If no packets are shown the sender has not sent any weather packets the latest 10 day(s).
| Time | Temp. | Humidity | Pressure | Rain* | Wind** | Luminosity | Snow |
|---|---|---|---|---|---|---|---|
| 1778028341 | -2.78° C | 95% | 1013.4 hPa | 0 mm | - | 1 W/m² | - |
| 1778028037 | -2.22° C | 95% | 1013.2 hPa | 0 mm | - | 2 W/m² | - |
| 1778027734 | -2.22° C | 95% | 1013.2 hPa | 0 mm | - | 3 W/m² | - |
| 1778027430 | -2.22° C | 95% | 1012.7 hPa | 0 mm | - | 6 W/m² | - |
| 1778027126 | -2.22° C | 95% | 1013.1 hPa | 0 mm | - | 8 W/m² | - |
| 1778026822 | -2.22° C | 95% | 1013 hPa | 0 mm | - | 5 W/m² | - |
| 1778026519 | -2.22° C | 95% | 1013.1 hPa | 0 mm | - | 4 W/m² | - |
| 1778026216 | -2.22° C | 95% | 1013 hPa | 0 mm | - | 5 W/m² | - |
| 1778025914 | -2.22° C | 96% | 1012.6 hPa | 0 mm | - | 8 W/m² | - |
| 1778025611 | -2.22° C | 96% | 1013 hPa | 0 mm | - | 12 W/m² | - |
| 1778025308 | -2.22° C | 96% | 1012.7 hPa | 0 mm | - | 13 W/m² | - |
| 1778025005 | -2.22° C | 96% | 1012.8 hPa | 0 mm | - | 14 W/m² | - |
| 1778024702 | -2.22° C | 95% | 1012.3 hPa | 0 mm | - | 9 W/m² | - |
| 1778024399 | -2.22° C | 96% | 1012.7 hPa | 0 mm | - | 21 W/m² | - |
| 1778024096 | -1.67° C | 96% | 1012.4 hPa | 0 mm | - | 22 W/m² | - |
| 1778023793 | -1.67° C | 96% | 1012.6 hPa | 0.51 mm | - | 23 W/m² | - |
| 1778023492 | -1.67° C | 96% | 1012.8 hPa | 0.51 mm | - | 15 W/m² | - |
| 1778023188 | -1.11° C | 96% | 1012.4 hPa | 0 mm | - | 17 W/m² | - |
| 1778022886 | -1.11° C | 96% | 1012.7 hPa | 0 mm | - | 13 W/m² | - |
| 1778022584 | -1.11° C | 97% | 1012.7 hPa | 0 mm | - | 16 W/m² | - |
| 1778022281 | -1.11° C | 97% | 1012.2 hPa | 0 mm | - | 30 W/m² | - |
| 1778021977 | -1.67° C | 97% | 1012.1 hPa | 0 mm | - | 22 W/m² | - |
| 1778021674 | -1.67° C | 96% | 1012.4 hPa | 0 mm | - | 17 W/m² | - |
| 1778021370 | -1.67° C | 96% | 1011.9 hPa | 0 mm | - | 12 W/m² | - |
| 1778021068 | -1.67° C | 96% | 1012.2 hPa | 0 mm | - | 8 W/m² | - |
* Rain latest hour (hover to see other rain measurements)
** Current wind speed in m/s (hover to see current wind gust speed)